Location: USNO
(38.9242°N, 77.0663°W)
Time: 17:42:10
(UTC-05:00)

N. Korean satellite - Pass Details

Date: 13 October 2017
Orbit: 461 x 513 km, 97.2° (Epoch: 10 December)

Event Time Altitude Azimuth Distance (km) Brightness Sun altitude
Rises 19:48:21 0° 191° (S) 2,554 10.3 -15.6°
Reaches altitude 10° 19:50:39 10° 203° (SSW) 1,668 9.5 -16.0°
Maximum altitude 19:53:45 27° 263° (W) 952 8.9 -16.6°
Drops below altitude 10° 19:56:49 10° 323° (NW) 1,654 9.8 -17.2°
Sets 19:59:05 0° 336° (NNW) 2,528 10.6 -17.7°
